TAM3560 SBCG-SBCR

Flight info

Callsign TAM3560
Flight time 0h 37m
Altitude 22000
Route ATNAS Z22 NEGRO
Aircraft A319/M-SDE3FGHIRWY/LB1

Departure

Time 2026-05-06 19:02
Airport Campo Grande Airport (SBCG)

Arrival

Time 2026-05-06 19:39
Airport Corumbá International Airport (SBCR)
Time Latitude Longitude Altitude Speed Heading
2026-05-06 18:36 -20.45792 -54.66933 1839 ft 0 kts 352°
2026-05-06 18:55 -20.45798 -54.66932 1839 ft 4 kts 354°
2026-05-06 18:55 -20.45816 -54.66930 1839 ft 4 kts
2026-05-06 18:55 -20.45841 -54.66936 1839 ft 4 kts 39°
2026-05-06 18:56 -20.45851 -54.66951 1839 ft 0 kts 84°
2026-05-06 18:57 -20.45849 -54.66934 1839 ft 9 kts 83°
2026-05-06 18:58 -20.45838 -54.66830 1839 ft 17 kts 84°
2026-05-06 18:58 -20.45889 -54.66710 1839 ft 22 kts 158°
2026-05-06 18:58 -20.46038 -54.66730 1839 ft 26 kts 221°
2026-05-06 18:58 -20.46180 -54.66865 1839 ft 29 kts 222°
2026-05-06 18:59 -20.46341 -54.67020 1839 ft 33 kts 224°
2026-05-06 18:59 -20.46522 -54.67190 1839 ft 37 kts 222°
2026-05-06 18:59 -20.46718 -54.67380 1841 ft 36 kts 221°
2026-05-06 18:59 -20.46909 -54.67565 1839 ft 39 kts 222°
2026-05-06 19:00 -20.47115 -54.67766 1839 ft 41 kts 223°
2026-05-06 19:00 -20.47338 -54.67983 1839 ft 44 kts 222°
2026-05-06 19:00 -20.47534 -54.68171 1839 ft 35 kts 222°
2026-05-06 19:00 -20.47654 -54.68288 1839 ft 18 kts 222°
2026-05-06 19:01 -20.47768 -54.68326 1839 ft 20 kts 147°
2026-05-06 19:01 -20.47829 -54.68194 1840 ft 20 kts 58°
2026-05-06 19:01 -20.47640 -54.68016 1840 ft 69 kts 43°
2026-05-06 19:01 -20.47089 -54.67482 1839 ft 141 kts 42°
2026-05-06 19:02 -20.46265 -54.66693 2226 ft 165 kts 41°
2026-05-06 19:02 -20.45391 -54.65872 2775 ft 167 kts 41°
2026-05-06 19:02 -20.44514 -54.65035 3107 ft 176 kts 41°
2026-05-06 19:02 -20.43551 -54.64113 3267 ft 196 kts 39°
2026-05-06 19:03 -20.42468 -54.63079 3428 ft 222 kts 41°
2026-05-06 19:03 -20.41259 -54.61919 3731 ft 246 kts 42°
2026-05-06 19:03 -20.39948 -54.60674 4340 ft 257 kts 39°
2026-05-06 19:03 -20.38323 -54.59885 5018 ft 264 kts
2026-05-06 19:04 -20.36523 -54.60248 5807 ft 273 kts 333°
2026-05-06 19:04 -20.35166 -54.61682 6577 ft 285 kts 302°
2026-05-06 19:04 -20.34651 -54.63721 6842 ft 290 kts 274°
2026-05-06 19:04 -20.34484 -54.65854 6906 ft 287 kts 288°
2026-05-06 19:05 -20.33568 -54.67685 6929 ft 279 kts 314°
2026-05-06 19:05 -20.32253 -54.69198 6928 ft 277 kts 316°
2026-05-06 19:05 -20.30944 -54.70709 6929 ft 277 kts 315°
2026-05-06 19:05 -20.29656 -54.72205 6926 ft 279 kts 315°
2026-05-06 19:06 -20.28359 -54.73741 6922 ft 280 kts 311°
2026-05-06 19:06 -20.27362 -54.75539 6931 ft 285 kts 294°
2026-05-06 19:06 -20.26862 -54.77644 7518 ft 291 kts 283°
2026-05-06 19:06 -20.26483 -54.79739 8329 ft 292 kts 283°
2026-05-06 19:07 -20.26080 -54.81863 9155 ft 294 kts 282°
2026-05-06 19:07 -20.25666 -54.84004 9957 ft 295 kts 282°
2026-05-06 19:07 -20.25240 -54.86200 10284 ft 314 kts 283°
2026-05-06 19:07 -20.24779 -54.88568 10429 ft 338 kts 283°
2026-05-06 19:08 -20.24292 -54.91085 10679 ft 354 kts 282°
2026-05-06 19:08 -20.23797 -54.93673 11189 ft 360 kts 284°
2026-05-06 19:08 -20.23296 -54.96306 11690 ft 366 kts 283°
2026-05-06 19:08 -20.22787 -54.98983 12226 ft 370 kts 283°
2026-05-06 19:09 -20.22273 -55.01684 12741 ft 375 kts 283°
2026-05-06 19:09 -20.21754 -55.04419 13285 ft 378 kts 283°
2026-05-06 19:09 -20.21232 -55.07181 13787 ft 382 kts 283°
2026-05-06 19:09 -20.20702 -55.09967 14251 ft 385 kts 283°
2026-05-06 19:10 -20.20169 -55.12769 14746 ft 387 kts 283°
2026-05-06 19:10 -20.19629 -55.15588 15231 ft 390 kts 283°
2026-05-06 19:10 -20.19084 -55.18416 15718 ft 392 kts 283°
2026-05-06 19:10 -20.18534 -55.21265 16196 ft 394 kts 283°
2026-05-06 19:11 -20.17984 -55.24122 16729 ft 395 kts 282°
2026-05-06 19:11 -20.17434 -55.26987 17263 ft 395 kts 282°
2026-05-06 19:11 -20.16813 -55.29837 17809 ft 396 kts 287°
2026-05-06 19:11 -20.15763 -55.32549 18309 ft 398 kts 297°
2026-05-06 19:12 -20.14502 -55.35176 18757 ft 399 kts 296°
2026-05-06 19:12 -20.13238 -55.37812 19173 ft 401 kts 296°
2026-05-06 19:12 -20.11966 -55.40468 19586 ft 404 kts 296°
2026-05-06 19:12 -20.10686 -55.43136 20050 ft 405 kts 296°
2026-05-06 19:13 -20.09405 -55.45811 20473 ft 408 kts 296°
2026-05-06 19:13 -20.08131 -55.48474 20866 ft 410 kts 295°
2026-05-06 19:13 -20.06832 -55.51187 21247 ft 413 kts 296°
2026-05-06 19:13 -20.05522 -55.53917 21644 ft 415 kts 295°
2026-05-06 19:14 -20.04209 -55.56655 22024 ft 417 kts 295°
2026-05-06 19:14 -20.02886 -55.59413 22358 ft 420 kts 296°
2026-05-06 19:14 -20.01551 -55.62188 22713 ft 423 kts 296°
2026-05-06 19:14 -20.00209 -55.64977 23054 ft 425 kts 295°
2026-05-06 19:15 -19.98862 -55.67775 23407 ft 427 kts 295°
2026-05-06 19:15 -19.97504 -55.70596 23702 ft 429 kts 295°
2026-05-06 19:15 -19.96141 -55.73424 23845 ft 430 kts 295°
2026-05-06 19:15 -19.94776 -55.76259 23883 ft 432 kts 295°
2026-05-06 19:16 -19.93406 -55.79107 23879 ft 432 kts 295°
2026-05-06 19:16 -19.92037 -55.81947 23881 ft 432 kts 295°
2026-05-06 19:16 -19.90666 -55.84786 23881 ft 432 kts 295°
2026-05-06 19:16 -19.89289 -55.87629 23881 ft 432 kts 296°
2026-05-06 19:17 -19.87918 -55.90467 23879 ft 432 kts 295°
2026-05-06 19:17 -19.86549 -55.93305 23879 ft 432 kts 295°
2026-05-06 19:17 -19.85178 -55.96154 23878 ft 432 kts 295°
2026-05-06 19:17 -19.83808 -55.98990 23878 ft 432 kts 296°
2026-05-06 19:18 -19.82432 -56.01829 23877 ft 432 kts 295°
2026-05-06 19:18 -19.81055 -56.04666 23877 ft 432 kts 295°
2026-05-06 19:18 -19.79678 -56.07506 23878 ft 432 kts 295°
2026-05-06 19:18 -19.78306 -56.10337 23876 ft 432 kts 295°
2026-05-06 19:19 -19.76930 -56.13173 23868 ft 432 kts 295°
2026-05-06 19:19 -19.75549 -56.16015 23866 ft 432 kts 295°
2026-05-06 19:19 -19.74173 -56.18850 23864 ft 433 kts 296°
2026-05-06 19:19 -19.72793 -56.21694 23863 ft 433 kts 296°
2026-05-06 19:20 -19.71414 -56.24534 23864 ft 433 kts 296°
2026-05-06 19:20 -19.70031 -56.27375 23865 ft 433 kts 295°
2026-05-06 19:20 -19.68646 -56.30221 23868 ft 433 kts 296°
2026-05-06 19:20 -19.67267 -56.33063 23868 ft 433 kts 295°
2026-05-06 19:21 -19.65905 -56.35867 23871 ft 433 kts 295°
2026-05-06 19:21 -19.64524 -56.38700 23871 ft 433 kts 295°
2026-05-06 19:21 -19.63142 -56.41540 23870 ft 433 kts 296°
2026-05-06 19:21 -19.61761 -56.44382 23868 ft 433 kts 295°
2026-05-06 19:22 -19.60382 -56.47218 23867 ft 433 kts 295°
2026-05-06 19:22 -19.58999 -56.50056 23867 ft 433 kts 296°
2026-05-06 19:22 -19.57618 -56.52884 23859 ft 433 kts 296°
2026-05-06 19:22 -19.56230 -56.55722 23858 ft 433 kts 295°
2026-05-06 19:23 -19.54845 -56.58561 23862 ft 433 kts 296°
2026-05-06 19:23 -19.53458 -56.61394 23861 ft 433 kts 296°
2026-05-06 19:23 -19.52068 -56.64232 23860 ft 433 kts 295°
2026-05-06 19:23 -19.50681 -56.67064 23862 ft 433 kts 295°
2026-05-06 19:24 -19.49295 -56.69899 23859 ft 433 kts 295°
2026-05-06 19:24 -19.47908 -56.72736 23858 ft 433 kts 296°
2026-05-06 19:24 -19.46523 -56.75572 23858 ft 433 kts 295°
2026-05-06 19:24 -19.45137 -56.78403 23857 ft 433 kts 296°
2026-05-06 19:25 -19.43744 -56.81238 23858 ft 433 kts 295°
2026-05-06 19:25 -19.42352 -56.84065 23863 ft 433 kts 296°
2026-05-06 19:25 -19.40962 -56.86889 23868 ft 432 kts 296°
2026-05-06 19:25 -19.39572 -56.89711 23870 ft 432 kts 296°
2026-05-06 19:26 -19.38184 -56.92527 23870 ft 431 kts 296°
2026-05-06 19:26 -19.36798 -56.95347 23861 ft 431 kts 295°
2026-05-06 19:26 -19.35417 -56.98161 23860 ft 431 kts 295°
2026-05-06 19:26 -19.34033 -57.00983 23857 ft 431 kts 296°
2026-05-06 19:27 -19.32739 -57.03798 23859 ft 430 kts 290°
2026-05-06 19:27 -19.31880 -57.06819 23852 ft 428 kts 282°
2026-05-06 19:27 -19.31163 -57.09884 23847 ft 429 kts 282°
2026-05-06 19:27 -19.30444 -57.12939 23846 ft 429 kts 282°
2026-05-06 19:28 -19.29720 -57.15996 23745 ft 426 kts 282°
2026-05-06 19:28 -19.29011 -57.18976 23567 ft 407 kts 282°
2026-05-06 19:28 -19.28324 -57.21852 22824 ft 401 kts 283°
2026-05-06 19:28 -19.27646 -57.24709 21920 ft 400 kts 283°
2026-05-06 19:29 -19.26971 -57.27562 21119 ft 396 kts 283°
2026-05-06 19:29 -19.26314 -57.30347 20595 ft 385 kts 283°
2026-05-06 19:29 -19.25675 -57.33047 20078 ft 373 kts 283°
2026-05-06 19:29 -19.25049 -57.35675 19557 ft 363 kts 283°
2026-05-06 19:30 -19.24440 -57.38231 19189 ft 349 kts 283°
2026-05-06 19:30 -19.23862 -57.40647 19037 ft 330 kts 283°
2026-05-06 19:30 -19.23305 -57.42981 18510 ft 326 kts 284°
2026-05-06 19:30 -19.22751 -57.45302 17915 ft 324 kts 284°
2026-05-06 19:31 -19.22208 -57.47582 17443 ft 317 kts 284°
2026-05-06 19:31 -19.21668 -57.49855 16740 ft 319 kts 284°
2026-05-06 19:31 -19.20574 -57.54454 15178 ft 327 kts 286°
2026-05-06 19:32 -19.20012 -57.56803 14315 ft 333 kts 285°
2026-05-06 19:32 -19.19445 -57.59165 13433 ft 337 kts 287°
2026-05-06 19:32 -19.18865 -57.61576 12524 ft 338 kts 287°
2026-05-06 19:32 -19.18299 -57.63946 12045 ft 327 kts 285°
2026-05-06 19:33 -19.17746 -57.66261 11404 ft 323 kts 287°
2026-05-06 19:33 -19.17202 -57.68532 10981 ft 311 kts 286°
2026-05-06 19:33 -19.16683 -57.70693 10784 ft 294 kts 286°
2026-05-06 19:33 -19.16195 -57.72726 10643 ft 277 kts 286°
2026-05-06 19:34 -19.15734 -57.74648 10494 ft 262 kts 287°
2026-05-06 19:34 -19.15283 -57.76518 9949 ft 266 kts 286°
2026-05-06 19:34 -19.14818 -57.78434 9334 ft 269 kts 288°
2026-05-06 19:34 -19.14242 -57.80300 8697 ft 268 kts 300°
2026-05-06 19:35 -19.13125 -57.81887 7922 ft 269 kts 320°
2026-05-06 19:35 -19.11589 -57.82955 7094 ft 262 kts 339°
2026-05-06 19:35 -19.09860 -57.83510 6366 ft 257 kts 346°
2026-05-06 19:35 -19.08160 -57.83952 5715 ft 248 kts 355°
2026-05-06 19:36 -19.06533 -57.83663 5246 ft 233 kts 26°
2026-05-06 19:36 -19.05377 -57.82554 4800 ft 223 kts 57°
2026-05-06 19:36 -19.04853 -57.81039 4341 ft 216 kts 71°
2026-05-06 19:36 -19.04461 -57.79555 3871 ft 207 kts 71°
2026-05-06 19:37 -19.04100 -57.78179 3756 ft 185 kts 71°
2026-05-06 19:37 -19.03758 -57.76886 3389 ft 180 kts 70°
2026-05-06 19:37 -19.03423 -57.75626 3035 ft 174 kts 70°
2026-05-06 19:37 -19.03213 -57.74825 2938 ft 163 kts 70°
2026-05-06 19:38 -19.02802 -57.73368 2380 ft 154 kts 68°
2026-05-06 19:38 -19.02515 -57.72267 1778 ft 157 kts 70°
2026-05-06 19:38 -19.02229 -57.71168 1363 ft 149 kts 72°
2026-05-06 19:38 -19.01956 -57.70142 995 ft 140 kts 73°
2026-05-06 19:39 -19.01696 -57.69199 724 ft 130 kts 73°
2026-05-06 19:39 -19.01462 -57.68271 572 ft 128 kts 74°
2026-05-06 19:39 -19.01214 -57.67382 482 ft 116 kts 73°
2026-05-06 19:39 -19.01061 -57.66795 480 ft 46 kts 73°
2026-05-06 19:40 -19.00991 -57.66536 484 ft 25 kts 76°
2026-05-06 19:40 -19.01007 -57.66380 482 ft 22 kts 158°
2026-05-06 19:40 -19.01145 -57.66310 482 ft 22 kts 155°
2026-05-06 19:40 -19.01259 -57.66307 483 ft 15 kts 256°
2026-05-06 19:41 -19.01261 -57.66317 484 ft 1 kts 258°